Home   Weather   Iqaluit   Past weeks

Flag for Canada Past Weather in Iqaluit, Nunavut, Canada — Yesterday and Last 2 Weeks

Now
0 °F

Light snow. Overcast.


Feels Like: -16 °F
Forecast: -18 / -15 °F
Wind: 9 mph from Northwest

Location: Iqaluit

Current Time: Dec 10, 2016 at 3:33:56 pm

Latest Report: Dec 10, 2016 at 3:00 pm


Visibility: 15 mi

Pressure: 29.83 "Hg

Humidity: 78%

Dew Point: -6 °F

Location of IqaluitLocation

Past Weather in Iqaluit — Graph

°F

Iqaluit Temperature Yesterday

Maximum temperature yesterday: -17 °F (at 2:00 pm)
Minimum temperature yesterday: -22 °F (at 12:00 am)
Average temperature yesterday: -20 °F

High & Low Weather Summary for the Past Weeks

 TemperatureHumidityPressure
High21 °F (Nov 26, 12:00 pm)92% (Nov 26, 7:00 pm)30.42 "Hg (Nov 26, 7:00 pm)
Low-22 °F (Dec 8, 8:00 pm)62% (Dec 8, 11:00 am)29.77 "Hg (Dec 8, 11:00 am)
Average-1 °F77%30.06 "Hg
* Reported Nov 25 2:00 pm — Dec 10 2:00 pm, Iqaluit, Weather by CustomWeather, © 2016

Note: Actual official high and low records may vary slightly from our data, if they occured in-between our weather recording intervals... More about our weather records

Advertising

Iqaluit Weather History for the Previous 24 Hours

Scroll right to see more
 ConditionsComfort  
Time TempWeatherWind HumidityBarometerVisibility
2:00 pm
Sat, Dec 10
0 °FOvercast.8 mph78%29.83 "Hg15 mi
1:00 pm0 °FLight snow. Overcast.5 mph71%29.83 "Hg20 mi
12:00 pm-2 °FLight snow. Overcast.10 mph71%29.85 "Hg15 mi
11:00 am-2 °FLight snow. Overcast.8 mph77%29.86 "Hg15 mi
10:00 am-4 °FLight snow. Partly sunny.7 mph77%29.88 "Hg20 mi
9:00 am-6 °FLight snow. Passing clouds.No wind77%29.90 "Hg20 mi
8:00 am-8 °FLight snow. Partly cloudy.5 mph77%29.90 "Hg15 mi
7:49 am-9 °FLight snow. Partly cloudy.6 mph77%29.90 "Hg15 mi
7:00 am-9 °FLight snow. Passing clouds.7 mph70%29.91 "Hg15 mi
6:00 am-11 °FLight snow. Passing clouds.12 mph70%29.92 "Hg15 mi
5:00 am-11 °FLight snow. Passing clouds.9 mph70%29.92 "Hg15 mi
4:00 am-13 °FPassing clouds.9 mph69%29.93 "Hg15 mi
3:00 am-15 °FPassing clouds.13 mph69%29.91 "Hg15 mi
2:00 am-15 °FPassing clouds.6 mph69%29.92 "Hg15 mi
1:00 am-15 °FPassing clouds.8 mph69%29.90 "Hg15 mi
12:00 am-15 °FLight snow. Passing clouds.10 mph76%29.90 "Hg15 mi
11:00 pm
Fri, Dec 9
-17 °FLight snow. Passing clouds.12 mph69%29.91 "Hg15 mi
10:00 pm-20 °FLow level haze.13 mph75%29.92 "Hg15 mi
9:00 pm-20 °FLow level haze.13 mph75%29.93 "Hg15 mi
8:00 pm-20 °FPassing clouds.9 mph68%29.93 "Hg15 mi
7:00 pm-22 °FLow level haze.9 mph68%29.93 "Hg15 mi
6:00 pm-22 °FClear.9 mph68%29.93 "Hg15 mi
5:00 pm-20 °FLow level haze.9 mph68%29.93 "Hg15 mi
4:00 pm-18 °FLow level haze.17 mph69%29.92 "Hg15 mi
3:00 pm-17 °FLow level haze.17 mph69%29.90 "Hg20 mi
Weather by CustomWeather, © 2016

See weather overviewHow to use our weather pages